Regional Weather Roundup
Issued by NWS

Home | Current Version | Previous Version | Graphics & Text | Print | Product List | Glossary On
Versions: 1 2 3 4 5 6 7 8 9 10 11 12 13 14 15 16 17 18 19 20 21 22 23 24 25 26 27 28 29 30 31 32 33 34 35 36 37 38 39 40 41 42 43 44 45 46 47 48 49 50
150
ASUS43 KLOT 181008
RWRIL

ILLINOIS REGIONAL WEATHER ROUNDUP
NATIONAL WEATHER SERVICE CHICAGO/ROMEOVILLE IL
400 AM CST WED JAN 18 2017

NOTE: "FAIR" INDICATES FEW OR NO CLOUDS BELOW 12,000 FEET WITH NO
SIGNIFICANT WEATHER AND/OR OBSTRUCTIONS TO VISIBILITY.

* THESE STATIONS ARE NOT UNDER NWS QUALITY CONTROL. THEY ALSO MAY NOT
  REPORT WEATHER SUCH AS PRECIPITATION OR FOG.

ILZ001-002-007-009-015-016-024-181100-
NORTHWEST ILLINOIS

CITY           SKY/WX    TMP DP  RH WIND       PRES   REMARKS
MOLINE         CLOUDY    36  33  89 W9        30.13S FOG     WCI  29
STERLING*      CLOUDY    33  33 100 W15       30.12R FOG     WCI  23
SAVANNA*       CLOUDY    33  32  94 W8        30.12S WCI  27
$$

ILZ003-004-008-010-011-017-018-181100-
NORTH CENTRAL ILLINOIS

CITY           SKY/WX    TMP DP  RH WIND       PRES   REMARKS
ROCKFORD       DRZL/FOG  35  33  92 W9        30.11R VSB 1   WCI  28
FREEPORT*      CLOUDY    32  32  99 W9G16     30.11R FOG     WCI  25
ROCHELLE*      CLOUDY    33  33 100 W15       30.11R FOG     WCI  23
DE KALB*       FOG       33  33  99 W9        30.09R VSB 1   WCI  26
$$

ILZ005-006-012>014-019>023-181100-
NORTHEAST ILLINOIS

CITY           SKY/WX    TMP DP  RH WIND       PRES   REMARKS
CHICAGO-OHARE  CLOUDY    34  33  96 W9        30.07R FOG     WCI  27
CHICAGO-MIDWAY CLOUDY    33  32  96 W9        30.08R FOG     WCI  25
AURORA         CLOUDY    35  33  92 W13       30.09S FOG     WCI  26
LANSING*       CLOUDY    34  34 100 W12       30.10R FOG     WCI  25
JOLIET*        CLOUDY    35  35  99 W7        30.11R FOG     WCI  29
WAUKEGAN       CLOUDY    35  33  92 SW3       30.05R
DUPAGE AIRPORT FOG       34  32  92 W9        30.07R VSB 1   WCI  27
KANKAKEE*      CLOUDY    33  32  96 W12       30.13R FOG     WCI  25
WHEELING       CLOUDY    35  33  92 W3        30.08R FOG
MORRIS*        CLOUDY    34  33  95 W14       30.11R FOG     WCI  24
ROMEOVILLE*    CLOUDY    33  33 100 W10       30.10R FOG     WCI  25
NORTHERLY ISL    N/A     35  33  92 NW8         N/A  WCI  29
$$

LMZ740>746-181100-
SOUTHERN LAKE MICHIGAN

STATION/POSITION SKY/WX   TEMP    WIND        PRES    VSBY  WAVE
                          AIR SEA DIR/SP/G                  HT/PER
                          (F)     (DEG/KT/KT) (MB)    (MI)  (FT/S)
HARRISON CRIB              36     270/ 16/ 18   N/A
BURNHAM HARBOR             35     260/  5/ 13   N/A
CALUMET HARBOR             35     240/  6/ 11 1017.8R
BURNS HARBOR               35     240/ 10/ 14 1019.0R
$$

ILZ025>027-034>036-040-047-049-050-058-095>099-181100-
WEST-CENTRAL ILLINOIS

CITY           SKY/WX    TMP DP  RH WIND       PRES   REMARKS
QUINCY         CLOUDY    34  31  88 W7        30.17F WCI  28
GALESBURG*     CLOUDY    35  34  99 W10       30.15R WCI  27
MACOMB*        CLOUDY    35  33  92 W10G18    30.18S WCI  27
JACKSONVILLE*  CLOUDY    36  32  86 W12       30.18S WCI  28
PITTSFIELD*    CLOUDY    36  32  87 W5        30.18F WCI  32
$$

ILZ028>032-037-038-041>044-048-051>054-059>061-181100-
CENTRAL ILLINOIS

CITY           SKY/WX    TMP DP  RH WIND       PRES   REMARKS
PONTIAC        CLOUDY    35  35 100 W12G20    30.15R WCI  26
BLOOMINGTON    CLOUDY    34  33  96 W14       30.14S FOG     WCI  25
DECATUR        CLOUDY    37  35  92 NW10      30.16S WCI  30
PEORIA         CLOUDY    35  35 100 W6        30.15S FOG     WCI  30
LACON*         CLOUDY    34  33  97 W5        30.14S FOG     WCI  30
LINCOLN*       CLOUDY    38  36  94 NW7       30.17R WCI  32
SPRINGFIELD    CLOUDY    38  34  85 W13       30.17S WCI  30
TAYLORVILLE    CLOUDY    37  34  90 W10       30.18R WCI  29
$$

ILZ033-039-045-046-055>057-062-063-181100-
EAST-CENTRAL ILLINOIS

CITY           SKY/WX    TMP DP  RH WIND       PRES   REMARKS
CHAMPAIGN      CLOUDY    36  34  92 W16       30.15R WCI  26
RANTOUL*       CLOUDY    36  35  97 W16       30.14R FOG     WCI  26
MATTOON        CLOUDY    37  35  92 W10       30.15S WCI  30
PARIS*         CLOUDY    37  35  94 W15G21    30.16S WCI  28
$$

ILZ079-100>102-181100-
SOUTHWEST ILLINOIS

CITY           SKY/WX    TMP DP  RH WIND       PRES   REMARKS
ALTON          CLOUDY    37  33  85 NW10      30.19S WCI  30
BELLEVILLE     CLOUDY    39  38  93 NW9       30.17F WCI  33
CAHOKIA*       CLOUDY    40  33  76 NW8       30.19S
SPARTA*        CLOUDY    38  35  88 NW5       30.20S WCI  35
$$

ILZ064>066-069>071-074>076-080>082-084>086-088>090-092>094-181100-
SOUTH-CENTRAL ILLINOIS

CITY           SKY/WX    TMP DP  RH WIND       PRES   REMARKS
CARBONDALE     CLOUDY    40  37  89 NW7       30.19S
CAIRO*         CLOUDY    42  38  86 N5        30.20R
EFFINGHAM*     CLOUDY    38  38  99 W9        30.19S WCI  32
MARION         CLOUDY    41  39  93 W3        30.20S
MT. VERNON     CLOUDY    39  36  89 VRB5      30.19S
CENTRALIA*     CLOUDY    39  36  88 W9        30.18S WCI  33
SALEM*         CLOUDY    40  37  87 NW5       30.18S
METROPOLIS*    CLOUDY    42  38  84 CALM      30.21R
$$

ILZ067-068-072-073-078-083-087-091-181100-
SOUTHEAST ILLINOIS

CITY           SKY/WX    TMP DP  RH WIND       PRES   REMARKS
LAWRENCEVILLE  CLOUDY    39  38  96 NW5       30.18R
FLORA*         CLOUDY    40  37  89 W10       30.19S
FAIRFIELD*     CLOUDY    40  37  89 CALM      30.18S
HARRISBURG*    CLOUDY    40  37  88 NW7       30.20S
ROBINSON*      CLOUDY    37  36  94 NW6       30.18S WCI  33
CARMI*         CLOUDY    40  37  89 NW8       30.18S
$$

ABBREVIATIONS USED IN REMARKS
   TC - TEMPERATURE IN CELSIUS
  WCI - WIND CHILL INDEX
   HX - HEAT INDEX
  VSB - VISIBILITY
$$





USA.gov is the U.S. government's official web portal to all federal, state and local government web resources and services.